x

9439040 - Astoria, Or (asto3) Weather Station

4:18 - Wed 1st Jul 2015 All times are PDT. -7 hours from GMT.

  • Wind
    3mph
  • Sea Temp 67°f
  • Luft Temp 57°f
  • Sea Pressure 1018.3mb
  • 9439040 - Astoria, Or
  • 9439040 - Astoria, Or

More Historic Weather Station data

Upgrade to MSW Pro to gain access to the past 30 days of data for over 8000 Wavebouys and Weather Stations around the globe.

Join Pro

Comparision Forecast

View Surf forecast
   
Mi 07/01 4:18 3
mph
1018.3mb 67f 57f
4:12 3
mph
1018.3mb 67f 58f
4:06 2
mph
1018.3mb 67f 58f
4:00 2 3 mph 1018.2mb 67f 58f
3:54 2 3 mph 1018.3mb 67f 58f
3:48 2 8 mph 1018.3mb 67f 59f
3:42 7 8 mph 1018.2mb 67f 59f
3:36  -  2 mph 1018.4mb 67f 58f
3:30  -  5 mph 1018.4mb 67f 58f
3:24 1 3 mph 1018.5mb 67f 58f
3:18 3 6 mph 1018.5mb 67f 58f
3:12 3 6 mph 1018.6mb 68f 58f
3:06 2 3 mph 1018.6mb 68f 59f
3:00 1 6 mph 1018.6mb 68f 59f
2:54 2 3 mph 1018.6mb 68f 58f
2:48 1 3 mph 1018.7mb 67f 58f
2:42 3
mph
1018.7mb 67f 58f
2:36 3 5 mph 1018.7mb 68f 57f
2:30 3
mph
1018.8mb 68f 58f
2:24 2
mph
1018.8mb 68f 58f
2:18 2
mph
1018.8mb 68f 58f
2:12 1 2 mph 1018.9mb 68f 58f
2:06 1 2 mph 1018.9mb 68f 58f
2:00 2 3 mph 1019mb 68f 58f
1:54 2 3 mph 1019.1mb 68f 58f
1:48 2 3 mph 1019.1mb 68f 58f
1:42 2 3 mph 1019.1mb 68f 58f
1:36 2
mph
1019.1mb 67f 58f
1:30 2 3 mph 1019.2mb 67f 58f
1:24 2 3 mph 1019.3mb 67f 58f
1:18  -  3 mph 1019.3mb 67f 58f
1:12 1 3 mph 1019.2mb 67f 58f
1:06 2 5 mph 1019.3mb 66f 59f
1:00 2 3 mph 1019.3mb 66f 58f
12:54 2 5 mph 1019.4mb 66f 58f
12:48 3 6 mph 1019.4mb 67f 59f
12:42 3 6 mph 1019.4mb 67f 59f
12:36 5 6 mph 1019.4mb 68f 59f
12:30 5
mph
1019.4mb 68f 59f
12:24 3 7 mph 1019.5mb 69f 59f
12:18 2 7 mph 1019.5mb 69f 60f
12:12 1 8 mph 1019.5mb 69f 60f
12:06 3 8 mph 1019.6mb 69f 61f
12:00 6 8 mph 1019.6mb 69f 60f
Di 06/30 11:54 2 7 mph 1019.6mb 69f 61f
11:48  -  mph - 70f 61f
11:42  -  mph - 70f 61f
11:36  -  mph - 70f 60f
11:30 5 7 mph 1019.7mb 70f 60f
11:24 5 7 mph 1019.7mb 70f 60f
11:18 5 8 mph 1019.8mb 70f 61f
11:12 6 8 mph 1019.8mb 70f 62f
11:06 5 10 mph 1019.9mb 70f 62f
11:00 5 8 mph 1019.8mb 70f 62f
10:54 3 8 mph 1019.8mb 70f 62f
10:48 2 7 mph 1019.8mb 70f 62f
10:42 5 10 mph 1019.8mb 70f 62f
10:36 5 9 mph 1019.8mb 70f 62f
10:30 1 7 mph 1019.9mb 70f 63f
10:24 5 9 mph 1019.8mb 70f 63f
10:18 3 8 mph 1019.8mb 70f 63f
10:12 3 8 mph 1019.8mb 70f 63f
10:06 6 9 mph 1019.8mb 70f 64f
10:00 3 9 mph 1019.8mb 70f 63f
9:54 2 9 mph 1019.7mb 70f 63f
9:48 3 8 mph 1019.7mb 70f 63f
9:42 3 10 mph 1019.6mb 70f 63f
9:36 3 8 mph 1019.5mb 70f 64f
9:30 3 11 mph 1019.5mb 70f 64f
9:24 2 8 mph 1019.4mb 70f 64f
9:18 2 11 mph 1019.4mb 69f 64f
9:12 5 10 mph 1019.4mb 69f 64f
9:06 3 8 mph 1019.4mb 69f 64f
9:00 5 10 mph 1019.3mb 69f 64f
8:54 5 10 mph 1019.3mb 69f 65f
8:48 3 9 mph 1019.3mb 69f 66f
8:42 3 8 mph 1019.3mb 69f 66f
8:36 2 7 mph 1019.3mb 69f 66f
8:30 3 9 mph 1019.2mb 69f 66f
8:24 3 9 mph 1019.3mb 69f 66f
8:18 6 11 mph 1019.2mb 69f 66f
8:12 3 9 mph 1019.2mb 69f 66f
8:06 6 9 mph 1019.2mb 69f 66f
8:00 2 8 mph 1019.2mb 69f 67f
7:54 2 6 mph 1019.2mb 69f 67f
7:48 2 7 mph 1019.2mb 69f 67f
7:42 2 6 mph 1019.2mb 69f 67f
7:36 2 7 mph 1019.2mb 69f 67f
7:30 1 7 mph 1019.2mb 69f 68f
7:24 2 6 mph 1019.2mb 69f 68f
7:18 2 6 mph 1019.2mb 69f 69f
7:12 2 7 mph 1019.1mb 70f 68f
7:06 1 10 mph 1019.1mb 69f 68f
7:00 6 18 mph 1019.1mb 69f 67f
6:54 11 18 mph 1019.1mb 69f 64f
6:48 13 18 mph 1019.1mb 70f 64f
6:42 14 17 mph 1019.1mb 69f 64f
6:36 13 16 mph 1019.1mb 69f 65f
6:30 13 16 mph 1019.1mb 69f 64f
6:24 10 16 mph 1019.1mb 69f 65f
6:18 13 16 mph 1019.1mb 69f 65f
6:12 11 16 mph 1019.1mb 69f 65f
6:06 8 16 mph 1019.1mb 69f 65f
6:00 10 16 mph 1019.1mb 68f 65f
5:54 11 17 mph 1019.2mb 68f 65f
5:48 11 17 mph 1019.1mb 68f 65f
5:42 13 16 mph 1019.1mb 68f 65f
5:36 13 17 mph 1019.1mb 68f 64f
5:30 14 16 mph 1019.1mb 68f 64f
5:24 11 16 mph 1019.2mb 68f 65f
5:18 10 17 mph 1019.2mb 69f 65f
5:12 11 16 mph 1019.3mb 69f 65f
5:06 13 16 mph 1019.3mb 69f 65f
5:00 14 20 mph 1019.4mb 69f 64f
4:54 14 16 mph 1019.4mb 69f 65f
4:48 9 16 mph 1019.5mb 69f 65f
4:42 13 17 mph 1019.5mb 68f 64f
4:36 11 20 mph 1019.5mb 66f 64f
4:00 10 16 mph 1019.7mb 66f 65f
3:54 11 17 mph 1019.7mb 66f 65f
3:48 11 16 mph 1019.8mb 67f 64f
3:42 11 17 mph 1019.8mb 67f 64f
3:36 11 17 mph 1019.8mb 67f 64f
3:30 11 18 mph 1019.8mb 68f 64f
3:24 11 17 mph 1019.9mb 68f 64f
3:18 9 20 mph 1020mb 68f 64f
3:12 13 17 mph 1020mb 68f 64f
3:06 14 18 mph 1020.1mb 68f 64f
3:00 10 17 mph 1020.1mb 68f 64f
2:54 11 21 mph 1020.1mb 68f 63f
2:48 11 17 mph 1020.2mb 68f 63f
2:42 13 18 mph 1020.3mb 68f 63f
2:36 10 16 mph 1020.3mb 68f 63f
2:30 13 17 mph 1020.4mb 68f 63f
2:24 10 16 mph 1020.4mb 67f 64f
2:18 8 17 mph 1020.4mb 69f 64f
2:12 8 15 mph 1020.4mb 69f 64f
2:06 6 16 mph 1020.5mb 69f 64f
2:00 9 16 mph 1020.5mb 69f 64f
1:54 7 15 mph 1020.5mb 69f 64f
1:48 8 14 mph 1020.6mb 69f 64f
1:42 10 14 mph 1020.6mb 68f 64f
1:36 6 13 mph 1020.5mb 68f 64f
1:30 6 11 mph 1020.5mb 68f 65f
1:24 6 11 mph 1020.6mb 68f 64f
1:18 5 11 mph 1020.6mb 69f 64f
1:12 6 11 mph 1020.6mb 69f 64f
1:06 5 13 mph 1020.7mb 69f 64f
1:00 3 11 mph 1020.7mb 69f 64f
12:54 5 10 mph 1020.8mb 69f 64f
12:48 6 13 mph 1020.9mb 69f 63f
12:42 5 11 mph 1020.9mb 69f 63f
12:36 6 11 mph 1021mb 69f 64f
12:30 3 10 mph 1021.1mb 69f 64f
12:24 6 11 mph 1021mb 69f 63f
12:18 6 10 mph 1021.1mb 69f 63f
12:12 3 11 mph 1021.1mb 69f 63f
12:06 2 9 mph 1021.1mb 69f 63f
12:00 5 11 mph 1021.1mb 69f 63f
11:54 5 10 mph 1021.1mb 69f 63f
11:48 5 9 mph 1021.1mb 69f 62f
11:42 7 10 mph 1021.1mb 69f 62f
11:36 7 10 mph 1021.2mb 69f 62f
11:30 6 9 mph 1021.2mb 69f 62f
11:24 6 9 mph 1021.2mb 69f 62f
11:18 5 8 mph 1021.3mb 69f 62f
11:12 3 8 mph 1021.3mb 69f 62f
11:06 3 7 mph 1021.3mb 69f 62f
11:00 3 7 mph 1021.3mb 69f 62f
10:54 3 7 mph 1021.4mb 69f 62f
10:48 3 7 mph 1021.4mb 69f 61f
10:42 2 6 mph 1021.4mb 69f 62f
10:36 3 8 mph 1021.4mb 69f 61f
10:30 3 7 mph 1021.4mb 69f 61f
10:24 3 8 mph 1021.4mb 69f 61f
10:18 3 8 mph 1021.3mb 69f 61f
10:12 5 7 mph 1021.2mb 69f 61f
10:06 5 7 mph 1021.2mb 69f 61f
10:00 2 7 mph 1021.2mb 69f 61f
9:54 5 7 mph 1021.2mb 69f 60f
9:48 5 7 mph 1021.2mb 69f 61f
9:42 3 6 mph 1021.2mb 69f 60f
9:36 1 6 mph 1021.2mb 69f 61f
9:30 1 5 mph 1021.2mb 69f 61f
9:24 3 5 mph 1021.3mb 69f 61f
9:18 1 5 mph 1021.2mb 69f 61f
9:12 2 5 mph 1021.1mb 69f 60f
9:06 3 6 mph 1021.1mb 68f 60f
9:00 3 8 mph 1021mb 68f 60f
8:54 2 6 mph 1021mb 68f 61f
8:48 5 6 mph 1021mb 68f 60f
8:42 2 6 mph 1021mb 68f 60f
8:36 2 6 mph 1021mb 68f 60f
8:30 2 6 mph 1020.9mb 68f 60f
8:24 1 7 mph 1020.8mb 68f 60f
8:18 6 7 mph 1020.8mb 68f 60f
8:12 5 7 mph 1020.8mb 68f 60f
8:06 2 7 mph 1020.8mb 68f 60f
8:00 5 7 mph 1020.9mb 68f 60f
7:54 2 6 mph 1020.9mb 67f 60f
7:48 2 6 mph 1020.9mb 67f 60f
7:42 2 6 mph 1020.9mb 67f 60f
7:36 1 5 mph 1020.9mb 67f 60f
7:30 2 8 mph 1020.8mb 67f 60f
7:24 3 6 mph 1020.8mb 67f 60f
7:18 1 6 mph 1020.8mb 67f 61f
7:12 3 7 mph 1020.8mb 67f 60f
7:06 3 6 mph 1020.7mb 67f 60f
7:00 2 6 mph 1020.8mb 67f 60f
6:54 3 5 mph 1020.7mb 67f 60f
6:48 2 8 mph 1020.6mb 67f 60f
6:42 3 6 mph 1020.6mb 67f 60f
6:36 2 5 mph 1020.5mb 67f 59f
6:30 3 5 mph 1020.4mb 67f 59f
6:24 3 5 mph 1020.4mb 67f 59f
6:18 3 6 mph 1020.4mb 67f 59f
6:12 3 5 mph 1020.4mb 67f 59f
6:06 2 5 mph 1020.4mb 67f 60f
6:00 2 3 mph 1020.3mb 67f 60f
5:54 1 8 mph 1020.3mb 67f 60f
5:48 5 7 mph 1020.3mb 67f 60f
5:42 6 7 mph 1020.3mb 67f 59f
5:36 5 7 mph 1020.3mb 67f 60f
5:30 6 7 mph 1020.2mb 67f 60f
5:24 3 7 mph 1020.3mb 67f 60f
5:18 6 7 mph 1020.3mb 67f 60f
5:12 6 7 mph 1020.4mb 67f 60f
5:06 2 6 mph 1020.3mb 67f 60f
5:00 2 6 mph 1020.2mb 67f 60f
4:54 3 5 mph 1020.2mb 67f 59f
4:48 3 6 mph 1020.2mb 67f 60f
4:42 5 6 mph 1020.2mb 67f 60f
4:36 5 7 mph 1020.1mb 67f 60f
4:30 5 7 mph 1020.2mb 67f 60f
4:24 2 6 mph 1020.2mb 67f 59f
4:18 3 6 mph 1020.3mb 67f 60f
4:12 5 6 mph 1020.3mb 67f 60f
4:06 5 6 mph 1020.3mb 67f 60f
4:00 6 9 mph 1020.3mb 67f 60f
3:54 6 8 mph 1020.3mb 67f 60f
3:48 3 7 mph 1020.3mb 67f 60f
3:42 3 6 mph 1020.2mb 67f 60f
3:36 1 6 mph 1020.3mb 67f 60f
3:30 5 8 mph 1020.3mb 67f 60f
3:24 3 7 mph 1020.3mb 67f 60f
3:18 2 6 mph 1020.3mb 67f 60f
3:12 2 7 mph 1020.2mb 67f 60f
3:06 5 7 mph 1020.2mb 67f 60f
3:00 1 6 mph 1020.2mb 67f 60f
2:54 2 7 mph 1020.1mb 67f 60f
2:48 5 6 mph 1020.1mb 67f 59f
2:42 3 6 mph 1020mb 67f 60f
2:36 3 6 mph 1020.1mb 67f 60f
2:30 1 6 mph 1020mb 67f 60f
2:24 3 6 mph 1020.1mb 67f 59f
2:18 2 5 mph 1020.1mb 67f 60f
2:12 1 5 mph 1020.1mb 67f 60f
2:06 1 5 mph 1020.1mb 68f 60f
2:00 3 7 mph 1020.1mb 68f 59f
1:54 2 6 mph 1020mb 68f 59f
1:48 1 5 mph 1020.1mb 68f 60f
1:42 2 6 mph 1020.1mb 68f 60f
1:36 3 8 mph 1020.1mb 68f 59f
1:30 5 8 mph 1020.1mb 68f 60f
1:24 1 6 mph 1020.1mb 68f 60f
1:18 1 3 mph 1020mb 68f 60f
1:12 1 3 mph 1020mb 68f 60f
1:06 2 6 mph 1019.9mb 68f 60f
1:00 2 6 mph 1019.9mb 68f 61f
12:54 1 5 mph 1019.8mb 67f 60f
12:48 2 6 mph 1019.9mb 67f 61f
12:42 2 6 mph 1020mb 67f 60f
12:36 3 6 mph 1019.8mb 67f 60f
12:30 3 6 mph 1019.8mb 67f 60f
12:24 5 7 mph 1019.8mb 67f 60f
12:18 3 6 mph 1019.7mb 67f 60f
12:12 5 6 mph 1019.6mb 67f 60f
12:06 5 6 mph 1019.6mb 67f 60f
12:00 5 7 mph 1019.6mb 67f 60f
Mo 06/29 11:54 3 6 mph 1019.6mb 67f 60f
11:48 3 6 mph - 68f -
11:42 6 7 mph - 68f -
11:36 3 6 mph - 68f -
11:30 2 5 mph 1019.7mb 69f 60f
11:24 6 9 mph 1019.8mb 69f 60f
11:18 2 6 mph 1019.8mb 69f 61f
11:12 5 6 mph 1019.8mb 69f 61f
11:06 2 5 mph 1019.9mb 69f 61f
11:00 1 3 mph 1019.9mb 69f 61f
10:54 1 5 mph 1019.9mb 69f 61f
10:48 1 5 mph 1019.9mb 69f 61f
10:42 2 6 mph 1019.9mb 69f 61f
10:36 2 6 mph 1020mb 69f 61f
10:30 2 6 mph 1019.9mb 69f 61f
10:24 3 6 mph 1019.9mb 69f 61f
10:18 3 7 mph 1019.9mb 69f 61f
10:12 2 5 mph 1019.8mb 69f 61f
10:06  -  5 mph 1019.8mb 69f 61f
10:00 2 6 mph 1019.7mb 69f 61f
9:54 3 6 mph 1019.7mb 69f 61f
9:48 1 5 mph 1019.6mb 69f 61f
9:42 1 6 mph 1019.5mb 69f 61f
9:36 5 7 mph 1019.5mb 69f 61f
9:30 2 8 mph 1019.5mb 69f 62f
9:24 5 9 mph 1019.4mb 69f 62f
9:18 1 8 mph 1019.4mb 69f 61f
9:12 5 8 mph 1019.3mb 69f 62f
9:06 6 8 mph 1019.3mb 69f 61f
9:00 5 8 mph 1019.3mb 69f 62f
8:54 6 8 mph 1019.2mb 69f 61f
8:48 2 7 mph 1019.2mb 69f 62f
8:42 2 10 mph 1019.2mb 69f 62f
8:36 5 8 mph 1019.3mb 69f 62f
8:30 2 8 mph 1019.2mb 69f 62f
8:24 6 9 mph 1019.3mb 69f 62f
8:18 7 9 mph 1019.3mb 69f 61f
8:12 6 11 mph 1019.2mb 69f 61f
8:06 6 9 mph 1019.1mb 69f 61f
8:00 6 10 mph 1019.2mb 69f 62f
7:54 3 10 mph 1019.2mb 68f 62f
7:48 2 8 mph 1019.2mb 68f 62f
7:42 2 9 mph 1019.2mb 68f 62f
7:30 8 11 mph 1019.2mb 68f 61f
7:18 6 11 mph 1019.2mb 69f 62f
7:12 6 11 mph 1019.2mb 69f 61f
7:06 6 10 mph 1019.2mb 69f 62f
7:00 5 11 mph 1019.3mb 69f 62f
6:54 6 13 mph 1019.3mb 69f 62f
6:48 6 13 mph 1019.3mb 69f 62f
6:42 6 11 mph 1019.2mb 69f 62f
6:36 6 13 mph 1019.3mb 69f 62f
6:30 8 15 mph 1019.2mb 69f 61f
6:24 8 15 mph 1019.2mb 69f 62f
6:18 7 11 mph 1019.2mb 69f 62f
6:12 6 11 mph 1019.2mb 69f 62f
6:06 7 11 mph 1019.2mb 69f 62f
6:00 6 13 mph 1019.3mb 69f 62f
5:54 7 14 mph 1019.2mb 69f 62f
5:48 6 13 mph 1019.2mb 69f 62f
5:42 6 13 mph 1019.2mb 69f 62f
5:36 5 10 mph 1019.2mb 69f 62f
5:30 3 13 mph 1019.2mb 69f 63f
5:24 5 10 mph 1019.3mb 68f 63f
5:18 7 14 mph 1019.2mb 68f 62f
5:12 6 14 mph 1019.2mb 68f 62f
5:06 7 13 mph 1019.2mb 69f 62f
5:00 7 11 mph 1019.3mb 69f 62f
4:54 6 11 mph 1019.3mb 69f 62f
4:48 6 11 mph 1019.2mb 69f 61f
4:42 10 14 mph 1019.3mb 69f 60f
4:36 9 16 mph 1019.3mb 69f 60f
4:30 6 15 mph 1019.4mb 69f 60f
4:24 9 14 mph 1019.3mb 69f 60f
4:18 7 15 mph 1019.3mb 68f 61f
4:12 8 13 mph 1019.4mb 68f 61f
4:06 5 13 mph 1019.5mb 68f 61f
4:00 6 14 mph 1019.3mb 68f 62f
3:54 7 13 mph 1019.2mb 68f 62f
3:48 3 8 mph 1019mb 68f 63f
3:42 2 9 mph 1019mb 66f 63f
3:36 2 9 mph 1019mb 65f 63f
3:30 2 6 mph 1019mb 64f 64f
3:24 2 8 mph 1019mb 65f 64f
3:18 2 6 mph 1019mb 65f 64f
3:12 2 8 mph 1019mb 65f 64f
3:06 3 7 mph 1019mb 66f 63f
3:00 2 6 mph 1019mb 66f 64f
2:54 2 6 mph 1019mb 68f 63f
2:48 2 6 mph 1019mb 68f 64f
2:42 1 5 mph 1019mb 68f 64f
2:36 1 6 mph 1019mb 68f 64f
2:30 1 3 mph 1019mb 68f 64f
2:24 2 6 mph 1018.9mb 68f 64f
2:18 2 6 mph 1019mb 68f 64f
2:12 1 7 mph 1019mb 68f 65f
2:06 2 6 mph 1019.1mb 68f 65f
2:00 1 3 mph 1019.1mb 68f 65f
1:54  -  3 mph 1019mb 68f 65f
1:48 2 7 mph 1019mb 68f 64f
1:42 2 9 mph 1019mb 68f 63f
1:36 5 9 mph 1019mb 68f 62f
1:30 8 13 mph 1019mb 68f 61f
1:24 8 10 mph 1019mb 68f 61f
1:18 8 11 mph 1019.1mb 68f 61f
1:12 8 11 mph 1019.1mb 68f 61f
1:06 8 10 mph 1019.1mb 69f 61f
1:00 5 9 mph 1019.1mb 69f 62f
12:54 7 10 mph 1019.2mb 69f 61f
12:48 7 9 mph 1019.2mb 69f 61f
12:42 9 11 mph 1019.2mb 69f 61f
12:36 9 13 mph 1019.2mb 69f 61f
12:30 8 11 mph 1019.1mb 69f 61f
12:24 8 11 mph 1019.1mb 69f 61f
12:18 6 9 mph 1019.2mb 69f 62f
12:12 5 10 mph 1019mb 69f 62f
12:06 5 8 mph 1019mb 69f 62f
12:00 2 7 mph 1019.1mb 69f 63f
11:54 1 6 mph 1019.1mb 69f 64f
11:48 1 6 mph 1019.1mb 69f 64f
11:42 1 7 mph 1019.1mb 69f 63f
11:36 5 9 mph 1019mb 69f 62f
11:30 5 9 mph 1019mb 69f 62f
11:24 3 11 mph 1019mb 69f 62f
11:18 5 13 mph 1019mb 69f 62f
11:12 5 14 mph 1019mb 69f 62f
11:06 5 13 mph 1019mb 69f 62f
11:00 6 14 mph 1019mb 69f 62f
10:54 6 11 mph 1018.9mb 69f 61f
10:48 5 10 mph 1018.9mb 69f 62f
10:42 7 13 mph 1018.8mb 69f 61f
10:36 5 10 mph 1018.8mb 69f 61f
10:30 5 13 mph 1018.8mb 69f 61f
10:24 8 14 mph 1018.8mb 69f 61f
10:18 6 13 mph 1018.8mb 69f 61f
10:12 8 13 mph 1018.9mb 69f 60f
10:06 7 10 mph 1018.8mb 69f 60f
10:00 3 11 mph 1018.8mb 69f 60f
9:54 6 14 mph 1018.8mb 69f 60f
9:48 9 15 mph 1018.7mb 69f 60f
9:42 7 13 mph 1018.7mb 69f 60f
9:36 7 14 mph 1018.6mb 69f 60f
9:30 8 13 mph 1018.7mb 68f 60f
9:24 7 13 mph 1018.6mb 68f 60f
9:18 6 8 mph 1018.6mb 68f 60f
9:12 5 10 mph 1018.4mb 68f 60f
9:06 7 10 mph 1018.4mb 68f 59f
9:00 5 9 mph 1018.3mb 68f 58f
8:54 5 7 mph 1018.2mb 68f 59f
8:48 6 9 mph 1018.2mb 68f 58f
8:42 3 8 mph 1018.2mb 68f 58f
8:36 6 9 mph 1018.2mb 68f 58f
8:30 6 10 mph 1018.1mb 68f 58f
8:24 7 9 mph 1018.1mb 68f 57f
8:18 7 10 mph 1017.9mb 67f 57f
8:12 5 8 mph 1017.8mb 67f 57f
8:06 6 9 mph 1017.7mb 67f 57f
8:00 6 8 mph 1017.7mb 67f 56f
7:54 6 8 mph 1017.7mb 67f 57f
7:48 3 10 mph 1017.7mb 67f 57f
7:42 7 10 mph 1017.7mb 67f 56f
7:36 8 11 mph 1017.7mb 67f 56f
7:30 3 9 mph 1017.6mb 66f 57f
7:24 5 10 mph 1017.6mb 66f 56f
7:18 6 10 mph 1017.6mb 66f 57f
7:12 7 11 mph 1017.7mb 67f 56f
7:06 6 9 mph 1017.6mb 67f 56f
7:00 6 10 mph 1017.6mb 67f 56f
6:54 6 9 mph 1017.6mb 67f 56f
6:48 7 9 mph 1017.5mb 67f 56f
6:42 6 11 mph 1017.5mb 67f 56f
6:36 8 14 mph 1017.4mb 67f 56f
6:30 6 13 mph 1017.4mb 67f 57f
6:24 7 11 mph 1017.3mb 67f 56f
6:18 6 10 mph 1017.3mb 67f 56f
6:12 7 10 mph 1017.2mb 67f 56f
6:06 6 8 mph 1017.1mb 67f 57f
6:00 7 9 mph 1017mb 67f 56f
5:54 6 10 mph 1016.9mb 67f 57f
5:48 7 11 mph 1016.9mb 67f 57f
5:42 7 11 mph 1016.9mb 67f 57f
5:36 6 11 mph 1016.8mb 67f 57f
5:30 7 15 mph 1016.8mb 67f 57f
5:24 6 11 mph 1016.8mb 67f 56f
5:18 7 14 mph 1016.8mb 67f 57f
5:12 9 14 mph 1016.8mb 67f 56f
5:06 9 14 mph 1016.7mb 67f 57f
5:00 7 11 mph 1016.7mb 67f 57f
4:54 9 14 mph 1016.6mb 67f 57f
4:48 8 11 mph 1016.6mb 67f 56f
4:42 7 14 mph 1016.6mb 67f 56f
4:36 8 14 mph 1016.6mb 67f 57f
4:30 7 11 mph 1016.5mb 67f 56f
4:24 9 14 mph 1016.5mb 67f 56f
4:18 6 13 mph 1016.4mb 67f 57f
4:12 8 14 mph 1016.3mb 67f 56f
4:06 8 14 mph 1016.4mb 67f 57f
4:00 8 14 mph 1016.5mb 67f 56f
3:54 6 10 mph 1016.6mb 67f 57f
3:48 6 9 mph 1016.6mb 67f 57f
3:42 6 10 mph 1016.7mb 67f 57f
3:36 8 11 mph 1016.7mb 67f 56f
3:30 7 13 mph 1016.5mb 67f 56f
3:24 7 11 mph 1016.4mb 67f 57f
3:18 6 11 mph 1016.3mb 67f 57f
3:12 5 9 mph 1016.3mb 67f 57f
3:06 7 10 mph 1016.2mb 68f 56f
3:00 7 10 mph 1016.3mb 68f 56f
2:54 6 10 mph 1016.3mb 68f 57f
2:48 5 8 mph 1016.3mb 68f 57f
2:42 6 11 mph 1016.4mb 68f 56f
2:36 6 13 mph 1016.3mb 68f 56f
2:30 8 11 mph 1016.3mb 68f 56f
2:24 5 10 mph 1016.3mb 68f 57f
2:18 6 10 mph 1016.4mb 68f 57f
2:12 6 9 mph 1016.5mb 68f 57f
2:06 7 11 mph 1016.5mb 68f 57f
2:00 7 9 mph 1016.5mb 68f 57f
1:54 5 8 mph 1016.5mb 68f 57f
1:48 6 10 mph 1016.6mb 68f 57f
1:42 6 10 mph 1016.6mb 68f 57f
1:36 6 9 mph 1016.5mb 68f 57f
1:30 5 11 mph 1016.2mb 68f 57f
1:24 5 10 mph 1016.3mb 67f 57f
1:18 6 10 mph 1016.2mb 66f 57f
1:12 3 9 mph 1016.2mb 65f 57f
1:06 7 9 mph 1016.2mb 65f 57f
1:00 3 8 mph 1016.1mb 68f 57f
12:54 5 9 mph 1015.9mb 68f 57f
12:48 2 6 mph 1015.8mb 68f 57f
12:42 5 9 mph 1015.9mb 68f 58f
12:36 3 8 mph 1015.8mb 68f 58f
12:30 1 7 mph 1015.8mb 68f 58f
12:24 5 7 mph 1015.8mb 68f 58f
12:18 3 7 mph 1015.8mb 67f 57f
12:12 2 6 mph 1015.7mb 67f 57f
12:06 2 5 mph 1015.9mb 67f 58f
12:00 3 8 mph 1015.9mb 67f 58f
So 06/28 11:54 2 7 mph 1015.8mb 68f 58f
11:48 2 8 mph - - 58f
11:42 5 11 mph - - 58f
11:36 3 11 mph - - 58f
11:30 3 10 mph - 68f 58f
11:24 7 11 mph - 68f 58f
11:18 6 10 mph - - -
11:12 6 15 mph - - -
11:06 6 13 mph - - -
11:00 6 14 mph 1015.8mb 69f 59f
10:54 6 13 mph 1015.8mb 69f 59f
10:48 5 13 mph 1015.7mb 69f 59f
10:42 5 14 mph 1015.6mb 69f 59f
10:36 5 10 mph 1015.5mb 69f 59f
10:30 7 13 mph 1015.5mb 69f 59f
10:24 6 11 mph 1015.4mb 69f 60f
10:18 5 13 mph 1015.4mb 69f 59f
10:12 7 11 mph 1015.5mb 69f 60f
10:06 6 11 mph 1015.5mb 69f 60f
10:00 7 15 mph 1015.5mb 69f 60f
9:54 8 14 mph 1015.5mb 69f 61f
9:48 9 16 mph 1015.4mb 69f 62f
9:42 7 11 mph 1015.2mb 69f 64f
9:36 3 10 mph 1015.2mb 69f 64f
9:30 2 10 mph 1015.1mb 69f 64f
9:24 6 11 mph 1015.1mb 69f 64f
9:18 8 14 mph 1015.2mb 69f 64f
9:12 3 17 mph 1014.8mb 69f 64f
9:06 14 18 mph 1015.2mb 69f 64f
9:00 1
mph
1014.4mb 69f 63f
8:54 1 3 mph 1014.3mb 69f 64f
8:48  -  5 mph 1014.3mb 69f 64f
8:42 2 6 mph 1014.5mb 68f 64f
8:36 2 5 mph 1014.3mb 68f 64f
8:30 1 3 mph 1014.2mb 68f 63f
8:24 2 3 mph 1014.3mb 68f 64f
8:18 1 3 mph 1014.1mb 68f 63f
8:12  -  9 mph 1014.1mb 68f 64f
8:06 5 9 mph 1013.9mb 68f 63f
8:00 3
mph
1014mb 68f 62f
7:54  -  6 mph 1014.3mb 68f 62f
7:48 1 7 mph 1014.3mb 68f 63f
7:42 3 5 mph 1014.4mb 68f 62f
7:36 3 5 mph 1014.5mb 68f 62f
7:30 3 7 mph 1014.6mb 68f 62f
7:24 6 9 mph 1014.6mb 68f 62f
7:18 5 7 mph 1014.6mb 68f 62f
7:12 5 9 mph 1014.6mb 68f 62f
7:06 6 8 mph 1014.6mb 68f 62f
7:00 6 8 mph 1014.5mb 68f 62f
6:54 5 8 mph 1014.5mb 68f 62f
6:48 6 8 mph 1014.6mb 68f 62f
6:42 5 7 mph 1014.9mb 68f 62f
6:36 5 7 mph 1015.2mb 68f 61f
6:30 6
mph
1015.4mb 67f 62f
6:24 3 5 mph 1015.7mb 67f 61f
6:18  -  2 mph 1015.8mb 67f 62f
6:12  -  1 mph 1016mb 67f 61f
6:06  -  2 mph 1016.1mb 67f 61f
6:00 1 2 mph 1016.2mb 67f 61f
5:54 2 3 mph 1016.4mb 67f 61f
5:48 1 3 mph 1016.7mb 68f 61f
5:42 2 5 mph 1016.8mb 68f 60f
5:36 2 6 mph 1017mb 68f 61f
5:30 1 3 mph 1017.1mb 68f 61f
5:24 2 6 mph 1017.1mb 68f 61f
5:18 2 8 mph 1017.2mb 68f 61f
5:12 1 3 mph 1017.1mb 68f 61f
5:06 1 6 mph 1017.1mb 68f 61f
5:00 1 6 mph 1017mb 68f 61f
4:54  -  5 mph 1017.2mb 68f 61f
4:48 1 3 mph 1017.1mb 68f 61f
4:42 1 5 mph 1017.2mb 68f 61f
4:36 1 6 mph 1017.3mb 68f 61f
4:30 2 5 mph 1017.1mb 68f 61f
4:24 2 7 mph 1017.1mb 68f 61f
4:18 2 6 mph 1017.1mb 68f 61f
4:12 2 5 mph 1017.2mb 68f 61f
4:06 2 5 mph 1017.2mb 68f 60f
4:00 1 5 mph 1017.2mb 68f 60f
3:54 2 7 mph 1017.3mb 68f 60f
3:48 5 9 mph 1017.3mb 67f 60f
3:42 5 10 mph 1017.4mb 67f 60f
3:36 7 11 mph 1017.5mb 67f 60f
3:30 5 10 mph 1017.5mb 68f 60f
3:24 5 11 mph 1017.5mb 68f 60f
3:18 6 11 mph 1017.5mb 68f 60f
3:12 3 13 mph 1017.3mb 67f 60f
3:06 5 11 mph 1017.2mb 66f 60f
3:00 2 6 mph 1017.1mb 67f 60f
2:54 2 8 mph 1017mb 67f 60f
2:48 3 13 mph 1017.1mb 66f 60f
2:42 7 11 mph 1017.4mb 65f 60f
2:36 7 15 mph 1017.4mb 64f 60f
2:30 6 13 mph 1017.5mb 65f 60f
2:24 5 11 mph 1017.3mb 67f 60f
2:18 6 11 mph 1017.6mb 67f 61f
2:12 5 11 mph 1017.5mb 67f 60f
2:06 5 11 mph 1017.2mb 68f 60f
2:00 6 13 mph 1017.2mb 67f 60f
1:54 6 13 mph 1017.2mb 67f 60f
1:48 5 10 mph 1016.8mb 67f 59f
1:42 5 11 mph 1016.9mb 67f 59f
1:36 6 14 mph 1017mb 67f 60f
1:30 1 6 mph 1016.9mb 67f 60f
1:24 2 8 mph 1016.9mb 67f 60f
1:18 5 14 mph 1017.1mb 67f 60f
1:12 3 10 mph 1017.1mb 67f 60f
1:06 5 14 mph 1017.3mb 68f 60f
1:00 8 15 mph 1017.2mb 69f 60f
12:54 5 11 mph 1016.8mb 69f 60f
12:48 3 15 mph 1016.6mb 69f 60f
12:42 3 11 mph 1016.5mb 69f 61f
12:36 5 14 mph 1016.5mb 69f 60f
12:30 6 16 mph 1016.4mb 69f 60f
12:24 6 15 mph 1016.3mb 69f 60f
12:18 6 14 mph 1016.2mb 69f 61f
12:12 8 14 mph 1016.1mb 69f 62f
12:06 5 13 mph 1015.8mb 69f 63f
12:00 2 11 mph 1015.8mb 70f 65f
11:54 5 11 mph 1015.3mb 70f 66f
11:48 14 17 mph 1015.2mb 70f 65f
11:42 9 14 mph 1014.4mb 70f 63f
11:36 9 15 mph 1013.7mb 70f 63f
11:30 13 14 mph 1013.7mb 70f 63f
11:24 10 16 mph 1014mb 70f 62f
11:18 8 10 mph 1013.9mb 70f 62f
11:12 11 14 mph 1014.4mb 70f 62f
11:06 6 9 mph 1014.2mb 70f 62f
11:00 5 7 mph 1014.4mb 70f 62f
10:54 5 7 mph 1014.2mb 70f 61f
10:48 6 8 mph 1014.2mb 70f 61f
10:42 5 10 mph 1014.6mb 70f 62f
10:36 3 7 mph 1014.7mb 70f 62f
10:30 6 11 mph 1015mb 70f 62f
10:24 8 13 mph 1014.8mb 70f 62f
10:18 6 18 mph 1014.7mb 70f 62f
10:12 13 18 mph 1015mb 70f 62f
10:06 9 17 mph 1015.2mb 70f 60f
10:00 11 16 mph 1015.2mb 70f 60f
9:54 11 15 mph 1015.9mb 70f 60f
9:48 8 16 mph 1015.9mb 70f 59f
9:42 9 15 mph 1016.2mb 70f 60f
9:36 10 15 mph 1016.6mb 69f 60f
9:30 7 17 mph 1016.6mb 69f 60f
9:24 9 15 mph 1016.5mb 69f 59f
9:18 6 14 mph 1017mb 69f 59f
9:12 8 14 mph 1017.1mb 69f 59f
9:06 9 14 mph 1017mb 69f 59f
9:00 10 11 mph 1016.7mb 69f 59f
8:54 3 6 mph 1017.3mb 69f 59f
8:48 5 6 mph 1016.8mb 69f 59f
8:42 3 7 mph 1017.2mb 69f 59f
8:36 2 6 mph 1017mb 69f 59f
8:30 3 8 mph 1017.2mb 69f 59f
8:24 5 6 mph 1017.5mb 68f 58f
8:18 5 9 mph 1017.4mb 68f 58f
8:12 8 16 mph 1017.4mb 68f 58f
8:06 7 11 mph 1017.1mb 68f 58f
8:00 9 14 mph 1016.8mb 68f 58f
7:54 9 14 mph 1016.6mb 68f 58f
7:48 5 10 mph 1016.3mb 68f 58f
7:42 6 10 mph 1016mb 68f 57f
7:36 7 13 mph 1015.7mb 68f 58f
7:30 5 9 mph 1015.5mb 68f 59f
7:24 11 15 mph 1014.7mb 68f 58f
7:18 13 14 mph 1014.3mb 68f 58f
7:12 2 5 mph 1015mb 68f 57f
7:06 3 6 mph 1015.5mb 68f 57f
7:00 2 5 mph 1015.3mb 68f 58f
6:54 1 6 mph 1015.4mb 68f 58f
6:48 1 6 mph 1015.4mb 68f 58f
6:42 2 3 mph 1015.3mb 68f 58f
6:36  -  1 mph 1015.1mb 68f 57f
6:30  -  1 mph 1015.1mb 68f 56f
6:24  -  1 mph 1015mb 68f 56f
6:18  -  2 mph 1015mb 68f 56f
6:12 2 3 mph 1015mb 68f 56f
6:06 2 3 mph 1015mb 68f 56f
6:00 2 5 mph 1014.9mb 68f 56f
5:54 2 5 mph 1014.9mb 68f 56f
5:48 3 6 mph 1014.9mb 68f 56f
5:42 2 6 mph 1015mb 68f 56f
5:36 2 7 mph 1015mb 68f 56f
5:30 2 5 mph 1014.8mb 68f 56f
5:24 2 6 mph 1014.7mb 68f 56f
5:18 1 3 mph 1014.5mb 69f 56f
5:12 3 6 mph 1014.7mb 68f 55f
5:06 3 7 mph 1014.7mb 68f 55f
5:00 5 8 mph 1014.9mb 68f 55f
4:54 2 6 mph 1015mb 68f 56f
4:48 2 8 mph 1014.9mb 69f 56f
4:42 3 7 mph 1015.1mb 69f 57f
4:36 2 5 mph 1014.9mb 69f 57f
4:30  -  3 mph 1014.8mb 68f 57f
4:24 1 6 mph 1014.7mb 68f 56f
4:18 3 7 mph 1014.7mb 68f 56f
4:12 3 8 mph 1014.7mb 68f 56f
4:06 2 5 mph 1014.9mb 68f 56f
4:00 2 3 mph 1014.9mb 68f 57f
3:54 2 7 mph 1014.9mb 68f 57f
3:48 3 7 mph 1014.7mb 68f 57f
3:42 2 6 mph 1014.8mb 68f 58f
3:36  -  6 mph 1014.7mb 68f 58f
3:30 1 5 mph 1014.7mb 68f 58f
3:24 1 3 mph 1014.6mb 68f 58f
3:18 1 5 mph 1014.7mb 68f 58f
3:12 2 5 mph 1014.8mb 68f 58f
3:06 2 6 mph 1014.8mb 68f 58f
3:00 1 6 mph - - 59f
2:54 2 7 mph - - 59f
2:48  -  mph 1015mb 69f -
2:42  -  mph 1015.1mb 69f -
2:36  -  mph 1015.2mb 69f -
2:30  -  mph 1015.3mb 69f -
2:24  -  mph 1015.1mb 69f -
2:18  -  mph - - 60f
2:12  -  mph - - 59f
2:06  -  mph - - 59f
2:00 5 7 mph 1015.1mb 69f 59f
1:54 5 8 mph 1015.1mb 69f 59f
1:48 3 7 mph 1015mb 69f 60f
1:42 1 5 mph 1014.9mb 69f 60f
1:36  -  6 mph 1014.8mb 69f 60f
1:30 2 8 mph 1015mb 69f 60f
1:24 3 7 mph 1015mb 69f 60f
1:18 2 7 mph 1014.9mb 69f 60f
1:12 2 6 mph 1014.8mb 69f 60f
1:06 2 5 mph 1014.8mb 69f 60f
1:00 1 6 mph 1014.9mb 70f 60f
12:54 2 6 mph 1014.9mb 70f 60f
12:48 2 8 mph 1014.9mb 70f 60f
12:42 2 8 mph 1014.9mb 70f 60f
12:36 2 7 mph 1015mb 70f 60f
12:30 2 6 mph 1014.9mb 70f 60f
12:24 2 7 mph 1015mb 70f 60f
12:18 2 8 mph 1015mb 70f 60f
12:12 3 9 mph 1015.1mb 70f 60f
12:06 2 6 mph 1015.1mb 70f 60f
12:00 2 8 mph 1015mb - 61f
Sa 06/27 11:54 2 9 mph 1015mb - 61f
11:48 3 9 mph 1015mb 69f 61f
11:42 2 6 mph 1015mb 69f 61f
11:36 3 9 mph 1014.9mb 69f 61f
11:30 3 9 mph 1014.9mb 69f 61f
11:24 2 9 mph 1014.9mb 69f 61f
11:18 3 8 mph - - 61f
11:12 2 9 mph - - 61f
11:06 3 8 mph - - 61f
11:00 6 11 mph 1014.8mb 69f 61f
10:54 5 11 mph 1014.7mb 69f 61f
10:48 6 13 mph 1014.7mb 69f 61f
10:42 5 10 mph 1014.6mb 69f 61f
10:36 3 13 mph 1014.6mb 69f 62f
10:30 6 11 mph 1014.5mb 69f 62f
10:24 6 14 mph 1014.5mb 69f 62f
10:18 8 13 mph 1014.4mb 69f 61f
10:12 7 14 mph 1014.5mb 70f 62f
10:06 7 14 mph 1014.4mb 71f 62f
10:00 3 13 mph 1014.3mb 71f 62f
9:54 8 14 mph 1014.1mb 71f 62f
9:48 7 14 mph 1014.1mb 71f 63f
9:42 5 13 mph 1014mb 71f 63f
9:36 5 10 mph 1013.9mb 71f 63f
9:30 5 10 mph 1013.9mb 71f 63f
9:24 5 11 mph 1013.8mb 70f 63f
9:18 6 10 mph 1013.7mb 70f 63f
9:12 5 13 mph 1013.5mb 70f 64f
9:06 6 10 mph 1013.4mb 71f 64f
9:00 6 11 mph 1013.1mb 71f 64f
8:54 6 13 mph 1013mb 71f 66f
8:48 6 13 mph 1012.9mb 71f 67f
8:42 7 14 mph 1012.8mb 71f 69f
8:36 5 13 mph 1012.7mb 71f 71f
8:30 6 10 mph 1012.5mb 71f 73f
8:24 6 9 mph 1012.4mb 71f 74f
8:18 5 8 mph 1012.4mb 71f 74f
8:12 2 7 mph 1012.4mb 71f 75f
8:06 3 7 mph 1012.3mb 71f 75f
8:00 2 7 mph 1012.2mb 71f 76f
7:54 3 7 mph 1012.2mb 71f 76f
7:48 6 9 mph 1012.2mb 71f 75f
7:42 5 10 mph 1012.2mb 70f 76f
7:36 6 9 mph 1012.2mb 70f 76f
7:30 5 10 mph 1012.2mb 70f 76f
7:24 8 14 mph 1012.1mb 70f 75f
7:18 6 10 mph 1012mb 70f 75f
7:12 3 7 mph 1012mb 69f 77f
7:06 2 6 mph 1012mb 69f 77f
7:00 2 3 mph 1012mb 69f 77f
6:54 3 6 mph 1012mb 69f 75f
6:48 3 6 mph 1012mb 69f 75f
6:42  -  5 mph 1011.8mb 69f 75f
6:36 2 5 mph 1011.9mb 69f 75f
6:30 1 3 mph 1012mb 68f 74f
6:24 1 2 mph 1012.1mb 68f 73f
6:18 2 7 mph 1012mb 68f 72f
6:12 5 8 mph 1012.1mb 67f 73f
6:06 6 9 mph 1012.1mb 68f 73f
6:00 3 11 mph 1012.1mb 69f 72f
5:54 8 13 mph 1012.2mb 69f 72f
5:48 9 13 mph 1012.3mb 69f 74f
5:42 9 11 mph 1012.2mb 69f 75f
5:36 7 11 mph 1012.2mb 69f 76f
5:30 9 11 mph 1012.3mb 70f 75f
5:24 9 13 mph 1012.4mb 70f 75f
5:18 8 13 mph 1012.4mb 70f 75f
5:12 9 13 mph 1012.3mb 70f 76f
5:06 9 11 mph 1012.4mb 71f 78f
5:00 7 10 mph 1012.4mb 71f 78f
4:54 6 11 mph 1012.4mb 71f 78f
4:48 6 10 mph 1012.4mb 71f 77f
4:42 6 10 mph 1012.4mb 71f 77f
4:36 8 11 mph 1012.4mb 71f 76f
4:30 6 8 mph 1012.4mb 71f 76f
4:24 6 10 mph 1012.4mb 71f 76f
4:18 9 10 mph 1012.5mb 70f 74f
4:12 8 13 mph 1012.6mb 69f 71f
4:06 10 15 mph 1012.9mb 70f 70f
4:00 7 14 mph 1012.9mb 70f 73f
3:54 10 18 mph 1013mb 71f 72f
3:48 11 16 mph 1012.9mb 71f 73f
3:42 9 16 mph 1012.8mb 70f 74f
3:36 6 10 mph 1012.6mb 69f 76f
3:30 5 8 mph 1012.6mb 69f 76f
3:24 6 7 mph 1012.7mb 69f 76f
3:18 3 7 mph 1012.8mb 69f 75f
3:12 6 7 mph 1012.8mb 69f 74f
3:06 3 9 mph 1012.8mb 69f 74f
3:00 8 9 mph 1013mb 67f 72f
2:54 5 7 mph 1013.2mb 67f 73f
2:48 3 7 mph 1013.3mb 67f 73f
2:42 3 6 mph 1013.4mb 67f 73f
2:36 2 5 mph 1013.4mb 67f 72f
2:30 5 8 mph 1013.4mb 67f 71f
2:24 2 7 mph 1013.5mb 67f 72f
2:18 3 7 mph 1013.7mb 67f 71f
2:12 3 8 mph 1013.8mb 67f 70f
2:06 6 9 mph 1013.9mb 67f 70f
2:00 3 7 mph 1014mb 67f 70f
1:54 5 8 mph 1014.1mb 67f 70f
1:48 5 10 mph 1014.2mb 67f 70f
1:42 6 8 mph 1014.1mb 67f 70f
1:36 3 6 mph 1014mb 66f 71f
1:30 3 6 mph 1014mb 66f 71f
1:24 2 6 mph 1014mb 65f 71f
1:18 3 5 mph 1014mb 65f 71f
1:12 2 6 mph 1014.1mb 65f 71f
1:06 3 5 mph 1014.2mb 68f 70f
1:00 3 7 mph 1014.2mb 69f 71f
12:54 2 7 mph 1014.4mb 69f 71f
12:48 3 7 mph 1014.5mb 69f 70f
12:42 3 5 mph 1014.5mb 69f 69f
12:36 2 5 mph 1014.4mb 69f 70f
12:30 1 3 mph 1014.5mb 69f 70f
12:24  -  5 mph 1014.5mb 69f 71f
12:18 3 7 mph 1014.7mb 69f 69f
12:12 1 5 mph 1014.6mb 69f 70f
12:06 2 5 mph 1014.4mb 69f 69f